Skip Page Navigation
NASA JPL Caltech
NASA Logo - Jet Propulsion Laboratory + View the NASA Portal
+ Center for Near-Earth Object Studies
JPL Home Earth Solar System Stars & Galaxies Technology
JPL Solar System Dynamics
BODIES ORBITS EPHEMERIDES TOOLS PHYSICAL DATA DISCOVERY FAQ SITE MAP
JPL Small-Body Database Browser
Search: [ help ]  
118796 (2000 SE30)
Classification: Main-belt Asteroid          SPK-ID: 2118796
Ephemeris | Orbit Diagram | Orbital Elements | Mission Design | Physical Parameters | Discovery Circumstances | Close-Approach Data ]

[ show orbit diagram ]
Orbital Elements at Epoch 2459000.5 (2020-May-31.0) TDB
Reference: JPL 19 (heliocentric ecliptic J2000)
 Element Value Uncertainty (1-sigma)   Units 
e .06664214377075271 3.6126e-08  
a 2.859489405268128 1.8016e-08 au
q 2.668926901211305 1.0799e-07 au
i 3.0768034954448 3.7132e-06 deg
node 72.63940538122193 7.7942e-05 deg
peri 280.5234187760564 8.383e-05 deg
M 30.65167581684057 3.0303e-05 deg
tp 2458850.122490671431
(2020-Jan-01.62249067)
0.00014846 TDB
period 1766.164554322403
4.84
1.6692e-05
4.57e-08
d
yr
n .2038315167853177 1.9264e-09 deg/d
Q 3.050051909324951 1.9217e-08 au
  Orbit Determination Parameters
   # obs. used (total)      674  
   data-arc span      10186 days (27.89 yr)  
   first obs. used      1991-12-13  
   last obs. used      2019-11-02  
   planetary ephem.      DE431  
   SB-pert. ephem.      SB431-N16  
   condition code      0  
   norm. resid. RMS      .60997  
   source      ORB  
   producer      Otto Matic  
   solution date      2019-Dec-04 11:08:18  

Additional Information
 Earth MOID = 1.66565 au 
 Jupiter MOID = 2.25322 au 
 T_jup = 3.297 
[ show covariance matrix ]

Ephemeris | Orbit Diagram | Orbital Elements | Mission Design | Physical Parameters | Discovery Circumstances | Close-Approach Data ]

Physical Parameter Table
Parameter Symbol Value Units Sigma Reference Notes
absolute magnitude H 15.5   n/a MPO449693  

118796 (2000 SE30)          Discovered 2000-Sep-24 by LINEAR at Socorro
Reference: 20051116/Numbers.arcLast Updated: 2005-11-21

[ show close-approach data ]
Alternate Designations
 2000 SE30 = 2001 YQ67 
Ephemeris | Orbit Diagram | Orbital Elements | Mission Design | Physical Parameters | Discovery Circumstances | Close-Approach Data ]
ABOUT SSD CREDITS/AWARDS PRIVACY/COPYRIGHT GLOSSARY LINKS
FirstGov 2020-Oct-30 00:32 UT
(server date/time)  
NASA Home Page
Site Manager:   Ryan S. Park
Webmaster  Alan B. Chamberlin